www.pogodaiklimat.ru

ПОГОДА в Жангизтобе

  • Прогноз погоды в Жангизтобе
  • Монитор погоды в Жангизтобе
  • Климат города

АРХИВ ПОГОДЫ в Жангизтобе

Время (UTC), дата Ветер
(напр.,м/с)
 
Видим.   Явления Облачность Т
(С)
Тd
(С)
f
(%)
Тe
(С)
Тes
(С)
Комфортность P
(гПа)
Po
(гПа)
Тmin
(С)
Tmax
(С)
R
(мм)
S
(см)
03 11.01 ЮВ 18-24
{27}
20 км позёмок {метель} 8/0
[Ac lent Ci fib]
-13.8 -18.6 67 -28 -28 1025.1 966.1 5
06 11.01 ЮВ 19-24
{27}
20 км позёмок {метель} 8/0
[Ac lent Ci fib]
-11.1 -16.0 67 -25 -25 1022.6 964.3 -17.8
09 11.01 ЮВ 19-24
{27}
4000 м метель 9/0
[Ac As Ci sp]
-11.6 -16.5 67 -26 -26 1020.6 962.3
12 11.01 Ю 18-22
{27}
н/о сильный позёмок {метель} 9/0
[Ac As]
-12.5 -17.4 67 -27 -27 1021.3 962.8
15 11.01 Ю 17-21
{26}
н/о сильный позёмок {метель} 9/0
[Ac As]
-13.0 -17.8 67 -27 -27 1021.0 962.4 -10.7
18 11.01 Ю 15-18
{22}
н/о позёмок {метель} 10/0
[Ac As]
-13.5 -18.3 67 -27 -27 1020.8 962.1 -10.7
21 11.01 Ю 9
{20}
н/о {метель} 10/0
[Ac As]
-14.0 -18.5 69 -25 -25 1021.7 962.8
00 12.01 Ю 9 н/о {метель} 10/0
[Ac As]
-13.5 -17.8 70 -24 -24 1023.2 964.4
03 12.01 Ю 1 4000 м слабый снег 10/0
[As op]
-9.3 -11.8 82 -12 -12 1024.4 966.4 5
06 12.01 З 2 4000 м слабый снег 10/0
[As op]
-9.3 -12.2 79 -14 -13 1026.6 968.5 -14.3 0.2
09 12.01 ЮЗ 2 50 км {снег} 6/0
[Ac As Ci fib]
-9.8 -13.9 72 -14 -14 1027.7 969.4
12 12.01 ЮВ 1 н/о {снег} 10/0
[Ac As]
-12.2 -16.0 73 -14 -14 1029.2 970.3
15 12.01 Ю 1 н/о 10/0
[Ac As]
-11.3 -15.3 72 -14 -14 1029.6 970.9 -8.8
18 12.01 З 1 н/о 10/0
[Ac As]
-11.5 -15.2 74 -14 -14 1030.0 971.2 -8.8 0.6
21 12.01 штиль 0 н/о 10/0
[As op]
-13.1 -15.5 82 -13 -13 1030.7 971.5
00 13.01 Ю 1 н/о 10/0
[As op]
-14.6 -16.8 83 -17 -17 1030.9 971.4
03 13.01 Ю 1 50 км 10/0
[As op]
-15.1 -17.5 82 -18 -18 1031.9 972.2 6
06 13.01 В 1 50 км 3/0
[Ac lent]
-14.8 -19.2 69 -17 -15 1032.7 973.0 -15.5
09 13.01 СЗ 1 50 км ясно -13.5 -18.0 69 -16 -15 1032.6 973.2
12 13.01 штиль 0 н/о ясно -16.5 -20.1 74 -17 -17 1034.2 974.1
15 13.01 штиль 0 н/о ясно -20.2 -22.8 80 -20 -20 1035.8 974.7 -13.1
18 13.01 штиль 0 н/о ясно -22.7 -24.9 82 -23 -23 1037.4 975.6 -13.1
21 13.01 Ю 1 н/о ясно -23.5 -25.7 82 -27 -27 1037.7 975.7
00 14.01 Ю 1 н/о 6/0
[Ac trans Ci fib]
-22.4 -24.5 83 -26 -26 1037.8 976.1
03 14.01 Ю 2 50 км 8/4 1000 м
[Sc Ac und]
-19.0 -21.4 81 -25 -25 1037.3 976.4 6
06 14.01 Ю 1 50 км 8/3 1000 м
[Sc Ac lent Ci fib]
-15.0 -18.6 74 -18 -16 1036.4 976.5 -24.3
09 14.01 Ю 1 50 км 9/0
[Ac lent]
-12.0 -16.0 72 -14 -14 1035.7 976.5
12 14.01 Ю 1 н/о 10/0
[Ac As]
-13.0 -17.0 72 -15 -15 1036.5 977.0
15 14.01 Ю 2 н/о 10/0
[As op]
-12.3 -16.3 72 -17 -17 1036.2 976.9 -11.5
18 14.01 Ю 2 н/о слабый снег 10/0
[As op]
-10.3 -13.4 78 -15 -15 1036.4 977.5 -11.5
21 14.01 Ю 1 н/о {снег} 10/0
[As trans]
-9.4 -12.4 79 -12 -12 1037.1 978.4
00 15.01 ЮЗ 1 н/о слабый снег 10/0
[As op]
-10.7 -12.7 85 -13 -13 1038.7 979.6
03 15.01 штиль 0 4000 м слабый снег 10/0
[As op]
-12.2 -14.6 82 -12 -12 1039.9 980.4 7
06 15.01 Ю 3 50 км {снег} 6/0
[Ac cast Ci fib]
-12.8 -16.5 74 -19 -18 1040.8 981.1 -12.5 0.4
09 15.01 Ю 2 50 км ясно -12.1 -17.5 64 -17 -16 1041.0 981.5
12 15.01 Ю 4 н/о ясно -16.2 -19.9 73 -24 -24 1043.0 982.4
15 15.01 ЮЗ 2 н/о ясно -20.5 -22.9 81 -26 -26 1043.6 982.0 -11.6
18 15.01 Ю 3 н/о ясно -17.2 -20.1 78 -24 -24 1042.0 981.2 -11.6
21 15.01 Ю 7 н/о ясно -16.2 -19.3 77 -27 -27 1040.6 980.2
00 16.01 Ю 3 н/о ясно -17.8 -20.9 77 -25 -25 1040.6 979.8
03 16.01 Ю 3 50 км 3/0
[Ci fib]
-19.0 -22.0 77 -26 -26 1041.0 979.9 7
06 16.01 Ю 4 50 км ясно -15.7 -19.6 72 -24 -22 1040.2 979.9 -19.7
09 16.01 Ю 3 50 км 4/0
[Ci fib]
-15.1 -19.5 69 -22 -21 1040.3 980.1
12 16.01 Ю 3 н/о 6/0
[Ac lent Ci sp]
-16.2 -20.1 72 -23 -23 1041.2 980.7
15 16.01 штиль 0 н/о 3/0
[Ci fib]
-18.5 -22.0 74 -19 -19 1042.0 980.9 -14.7
18 16.01 Ю 1 н/о 3/0
[Ci fib]
-19.3 -22.3 77 -22 -22 1042.4 981.1 -14.7
21 16.01 Ю 1 н/о 4/0
[Ci fib]
-19.8 -22.1 82 -23 -23 1041.6 980.3
00 17.01 штиль 0 н/о 8/0
[Ci fib]
-20.7 -22.6 85 -21 -21 1042.2 980.6
03 17.01 Ю 1 50 км 3/0
[Ci fib]
-21.2 -23.5 82 -24 -24 1042.6 980.9 7
06 17.01 штиль 0 50 км 6/0
[Ci fib]
-17.2 -20.7 74 -17 -14 1042.1 981.3 -21.8
09 17.01 штиль 0 50 км 6/0
[Ci fib]
-13.0 -19.5 58 -13 -12 1040.6 980.9
12 17.01 ЮЗ 1 н/о 10/0
[As trans]
-16.2 -19.0 79 -19 -19 1042.0 981.5
15 17.01 Ю 1 н/о {снег} 10/0
[As trans]
-21.0 -23.3 82 -24 -24 1044.0 982.2 -12.6
18 17.01 ЮЗ 1 н/о {снег} 10/0
[As trans]
-22.2 -24.4 82 -25 -25 1043.6 981.6 -12.6 0.0
21 17.01 штиль 0 н/о 10/0
[As op]
-19.6 -21.9 82 -20 -20 1042.4 981.1
00 18.01 штиль 0 н/о 10/0
[As trans]
-20.6 -22.9 82 -21 -21 1042.5 980.9

 

Местоположение метеостанции Жангизтобе (Восточно-Казахстанская область, Казахстан): широта 49.22 долгота 81.22 высота над уровнем моря 455 м.

В архиве по умолчанию представлена погода в Жангизтобе за последнюю неделю. Архивные данные за месяц целиком и за предыдущие месяцы, начиная с января 2011 года, Вы можете получить, выбрав интересующий диапазон дат из раскрывающегося списка и нажав кнопку "Ввод!".

Внимание! Время в таблицах - всемирное. Для получения местного времени необходимо прибавить поправку, которая в Жангизтобе равна 6 ч.

Ветер - указаны скорость ветра в м/с - средняя за 10 мин, порывы в срок и между сроками (в фигурных скобках) и направление, откуда дует ветер: С - северный, СВ - северо-восточный, В - восточный, ЮВ - юго-восточный, Ю - южный, ЮЗ - юго-западный, З - западный, СЗ - северо-западный.
Видимость - горизонтальная дальность видимости в метрах или километрах. При видимости от 1 до 10 км при отсутствии осадков обычно наблюдается дымка, при ухудшении видимости до 1 км и менее - туман. В сухую погоду видимость может ухудшаться дымом, пылью или мглою.
Явления - указаны атмосферные явления, наблюдавшиеся в срок или в последний час перед сроком; фигурными скобками обозначены явления, наблюдавшиеся между сроками (за 1-3 часа до срока); квадратными скобками обозначены град или гололедные отложения с указанием их диаметра в мм.
Облачность - указаны через наклонную черту общая и нижняя облачность в баллах и высота нижней границы облаков в метрах; квадратными скобками обозначены формы облаков: Ci - перистые, Cs - перисто-слоистые, Cc - перисто-кучевые, Ac - высококучевые, As - высокослоистые, Sc - слоисто-кучевые, Ns - слоисто-дождевые, Cu - кучевые, Cb - кучево-дождевые. Подробнее классификацию облаков см. в Атласе облаков (PDF).
T - Температура воздуха - температура, измеренная на высоте 2 м над землей.
Td - Температура точки росы - температура, при понижении до которой содержащийся в воздухе водяной пар достигнет насыщения.
f - Относительная влажность воздуха - влажноcть воздуха, измеренная на высоте 2 м над землей.
Te - Эффективная температура - температура, которую ощущает одетый по сезону человек в тени. Характеристика душности погоды. При расчете учитывается влияние влажности воздуха и скорости ветра на теплоощущения человека.
Tes - Эффективная температура на солнце - температура, которую ощущает человек, с поправкой на солнечный нагрев. Характеристика знойности погоды. Зависит от высоты солнца над горизонтом, облачности и скорости ветра. Ночью, в пасмурную погоду, а также при ветре 12 м/с и более поправка равна нулю.
P - Атмосферное давление - приведенное к уровню моря атмосферное давление.
Po - Атмосферное давление - измеренное на уровне метеостанции атмосферное давление.
Tmin - Минимальная температура - минимум температуры воздуха на высоте 2 м над землей.
Tmax - Максимальная температура - максимум температуры воздуха на высоте 2 м над землей.
R - Количество осадков - Количество выпавших осадков, мм. При наведении курсора мыши на число - период времени, за который выпало указанное количество осадков.
S - Снежный покров - Высота снежного покрова, см. При наведении курсора мыши на число - состояние снежного покрова и степень покрытия местности в баллах.